Meteor 1-28 Rocket - Orbit

View from above orbital plane
View from above orbital plane
View from above satellite
View from above satellite

Ground track
Ground track

The orbit data is extracted from the following two-line orbital elements,

1 10114U 77057B   13139.85468002  .00002019  00000-0  12214-3 0  9730
2 10114 097.3272 012.3865 0017747 104.0030 256.3175 15.11603259958114
Epoch (UTC): 19 May 2013 20:30:44
Eccentricity: 0.0017747
inclination: 97.3272°
perigee height: 519 km
apogee height: 543 km
right ascension of ascending node: 12.3865°
argument of perigee: 104.0030°
revolutions per day: 15.11603259
mean anomaly at epoch: 256.3175°
orbit number at epoch: 95811

The dashed part of the orbit path shows where the satellite is in the earth's shadow,  

Developed and maintained by Chris Peat, Heavens-Above GmbH. Please read the updated FAQ before sending e-mail. Imprint. DLR